TimeCDT,TemperatureF,Dew PointF,Humidity,Sea Level PressureIn,VisibilityMPH,Wind Direction,Wind SpeedMPH,Gust SpeedMPH,PrecipitationIn,Events,Conditions,WindDirDegrees,DateUTC
12:53 AM,66.9,51.1,57,30.04,10.0,South,10.4,17.3,N/A,,Clear,180,2012-10-22 05:53:00
1:53 AM,64.9,52.0,63,30.05,10.0,South,10.4,-,N/A,,Clear,180,2012-10-22 06:53:00
2:53 AM,64.0,51.1,63,30.06,10.0,South,8.1,-,N/A,,Clear,190,2012-10-22 07:53:00
3:53 AM,64.0,52.0,65,30.07,10.0,South,6.9,-,N/A,,Clear,190,2012-10-22 08:53:00
4:53 AM,63.0,52.0,67,30.08,10.0,South,8.1,-,N/A,,Clear,190,2012-10-22 09:53:00
5:53 AM,63.0,51.1,65,30.10,10.0,South,9.2,-,N/A,,Clear,180,2012-10-22 10:53:00
6:53 AM,63.0,51.1,65,30.11,10.0,South,10.4,-,N/A,,Clear,180,2012-10-22 11:53:00
7:53 AM,63.0,51.1,65,30.13,10.0,South,10.4,-,N/A,,Clear,190,2012-10-22 12:53:00
8:53 AM,66.9,52.0,59,30.14,10.0,South,10.4,-,N/A,,Clear,190,2012-10-22 13:53:00
9:53 AM,71.1,53.1,53,30.15,10.0,SSW,12.7,-,N/A,,Clear,200,2012-10-22 14:53:00
10:53 AM,73.9,54.0,50,30.14,10.0,SSW,16.1,20.7,N/A,,Clear,210,2012-10-22 15:53:00
11:53 AM,78.1,54.0,43,30.13,10.0,SSW,16.1,23.0,N/A,,Clear,210,2012-10-22 16:53:00
12:53 PM,80.1,53.1,39,30.09,10.0,SSW,9.2,18.4,N/A,,Clear,210,2012-10-22 17:53:00
1:53 PM,81.0,51.1,35,30.06,10.0,SW,12.7,-,N/A,,Clear,220,2012-10-22 18:53:00
2:53 PM,82.0,50.0,33,30.05,10.0,SW,11.5,-,N/A,,Clear,220,2012-10-22 19:53:00
3:53 PM,81.0,50.0,34,30.05,10.0,SSW,10.4,-,N/A,,Clear,210,2012-10-22 20:53:00
4:53 PM,79.0,50.0,36,30.06,10.0,South,5.8,-,N/A,,Clear,190,2012-10-22 21:53:00
5:53 PM,73.9,53.1,48,30.07,10.0,Calm,Calm,-,N/A,,Clear,0,2012-10-22 22:53:00
6:53 PM,66.0,53.1,63,30.08,10.0,South,3.5,-,N/A,,Clear,170,2012-10-22 23:53:00
7:53 PM,63.0,54.0,72,30.09,10.0,South,3.5,-,N/A,,Clear,190,2012-10-23 00:53:00
8:53 PM,57.9,52.0,81,30.07,10.0,South,4.6,-,N/A,,Clear,180,2012-10-23 01:53:00
9:53 PM,59.0,51.1,75,30.07,10.0,SSE,3.5,-,N/A,,Clear,160,2012-10-23 02:53:00
10:53 PM,62.1,48.9,62,30.06,10.0,South,5.8,-,N/A,,Clear,180,2012-10-23 03:53:00
11:53 PM,63.0,48.9,60,30.04,10.0,South,8.1,-,N/A,,Clear,190,2012-10-23 04:53:00